Regional Weather Roundup
Issued by NWS

Home | Current Version | Previous Version | Text Only | Print | Product List | Glossary Off
Versions: 1 2 3 4 5 6 7 8 9 10 11 12 13 14 15 16 17 18 19 20 21 22 23 24 25 26 27 28 29 30 31 32 33 34 35 36 37 38 39 40 41 42 43 44 45 46 47 48 49 50

000
ASUS43 KLOT 301704
RWRIL

ILLINOIS REGIONAL WEATHER ROUNDUP
NATIONAL WEATHER SERVICE CHICAGO/ROMEOVILLE IL
1200 PM CDT SAT JUL 30 2016

NOTE: "FAIR" INDICATES FEW OR NO CLOUDS BELOW 12,000 FEET WITH NO
SIGNIFICANT WEATHER AND/OR OBSTRUCTIONS TO VISIBILITY.

* THESE STATIONS ARE NOT UNDER NWS QUALITY CONTROL. THEY ALSO MAY NOT
  REPORT WEATHER SUCH AS PRECIPITATION OR FOG.

ILZ001-002-007-009-015-016-024-301800-
NORTHWEST ILLINOIS

CITY           SKY/WX    TMP DP  RH WIND       PRES   REMARKS
MOLINE         PTSUNNY   79  68  69 E7        29.99S HX  81
STERLING*      PTSUNNY   77  69  76 NE8       30.00S
SAVANNA*       PTSUNNY   76  66  71 NE5       30.00R
$$

ILZ003-004-008-010-011-017-018-301800-
NORTH CENTRAL ILLINOIS

CITY           SKY/WX    TMP DP  RH WIND       PRES   REMARKS
ROCKFORD       CLOUDY    76  65  68 NE13      30.01S
FREEPORT*      PTSUNNY   75  65  72 NE8       30.02S
ROCHELLE*      CLOUDY    73  67  81 NE10      30.01S
DE KALB*       CLOUDY    73  66  78 E10       30.01S
$$

ILZ005-006-012>014-019>023-301800-
NORTHEAST ILLINOIS

CITY           SKY/WX    TMP DP  RH WIND       PRES   REMARKS
CHICAGO-OHARE  CLOUDY    73  65  75 NE9       30.00R
CHICAGO-MIDWAY PTSUNNY   74  65  73 E12       29.99R
AURORA         CLOUDY    77  67  71 NE12      29.99S
LANSING*       CLOUDY    75  65  71 N6        29.99R
WAUKEGAN       PTSUNNY   72  65  78 NE9       30.01R
DUPAGE AIRPORT CLOUDY    74  65  73 NE13      29.99R
KANKAKEE*      CLOUDY    74  69  82 NE6       29.98F
WHEELING       CLOUDY    74  65  73 NE9       30.01R
MORRIS*        PTSUNNY   79  71  75 E9G16     29.96S HX  81
NORTHERLY ISL    N/A     72  65  78 NE7         N/A
$$

LMZ740>746-301800-
SOUTHERN LAKE MICHIGAN

STATION/POSITION SKY/WX   TEMP    WIND        PRES    VSBY  WAVE
                          AIR SEA DIR/SP/G                  HT/PER
                          (F)     (DEG/KT/KT) (MB)    (MI)  (FT/S)
SOUTHERN BUOY              68 73   70/  8/ 10 1015.4          2/ 4
WILMETTE HARBOR            70 71  100/ 10/ 14   N/A           4/ 5
HARRISON CRIB              71      80/ 11/ 12   N/A
BURNHAM HARBOR             71      70/  9/ 11   N/A
CALUMET HARBOR             71      40/  8/ 11 1014.8S
BURNS HARBOR               69      50/ 10/ 12 1015.6S
MICHIGAN CITY              68      30/ 10/ 11   N/A
MICHIGAN CITY 6N           69 72   70/ 12/ 14   N/A           3/ 5
ST. JOSEPH                 69 70   70/  6/ 10 1015.4R         2
$$

ILZ025>027-034>036-040-047-049-050-058-095>099-301800-
WEST-CENTRAL ILLINOIS

CITY           SKY/WX    TMP DP  RH WIND       PRES   REMARKS
QUINCY         PTSUNNY   77  68  73 VRB7      30.01S
GALESBURG*     PTSUNNY   76  67  73 N3        30.00R
MACOMB*        SUNNY     78  67  70 NE3       30.01S
JACKSONVILLE*  PTSUNNY   76  67  74 W6        30.01S
PITTSFIELD*    PTSUNNY   76  67  72 NW6       30.03S
$$

ILZ028>032-037-038-041>044-048-051>054-059>061-301800-
CENTRAL ILLINOIS

CITY           SKY/WX    TMP DP  RH WIND       PRES   REMARKS
PONTIAC        MOSUNNY   77  71  81 CALM      29.98S
BLOOMINGTON    PTSUNNY   78  68  71 E5        29.99S HX  80
DECATUR        MOSUNNY   79  66  64 W9        29.99S HX  81
PEORIA         CLOUDY    76  68  76 N3        29.98R
LACON*         PTSUNNY   77  67  70 CALM      29.97S
LINCOLN*       PTSUNNY   77  68  74 CALM      29.99R
SPRINGFIELD    PTSUNNY   77  67  71 W7        30.00S
TAYLORVILLE    MOSUNNY   77  68  72 MISG      30.00S
$$

ILZ033-039-045-046-055>057-062-063-301800-
EAST-CENTRAL ILLINOIS

CITY           SKY/WX    TMP DP  RH WIND       PRES   REMARKS
CHAMPAIGN      PTSUNNY   74  68  81 NW7       30.00R
MATTOON        PTSUNNY   78  66  66 NW10      29.98S HX  80
PARIS*         MOSUNNY   80  70  70 W6        29.99S HX  84
$$

ILZ079-100>102-301800-
SOUTHWEST ILLINOIS

CITY           SKY/WX    TMP DP  RH WIND       PRES   REMARKS
ALTON          PTSUNNY   81  66  61 NW12      30.00S HX  83
BELLEVILLE     MOSUNNY   83  69  62 NW5       29.98S HX  86
CAHOKIA*       MOSUNNY   84  62  47 W7        29.99R HX  85
SPARTA*        PTSUNNY   80  69  69 W3        30.01S HX  83
$$

ILZ064>066-069>071-074>076-080>082-084>086-088>090-092>094-301800-
SOUTH-CENTRAL ILLINOIS

CITY           SKY/WX    TMP DP  RH WIND       PRES   REMARKS
CARBONDALE     MOSUNNY   83  70  64 CALM      30.00S HX  87
CAIRO*         CLOUDY    75  72  90 CALM      30.02S
EFFINGHAM*     PTSUNNY   81  69  67 W7        30.01R HX  84
MT. VERNON     MOSUNNY   82  66  57 W3        30.00S HX  85
CENTRALIA*     PTSUNNY   82  71  68 W6        29.99S HX  86
SALEM*         PTSUNNY   83  67  57 W7        30.00R HX  85
METROPOLIS*    CLOUDY    77  72  84 SW3       30.02S
$$

ILZ067-068-072-073-078-083-087-091-301800-
SOUTHEAST ILLINOIS

CITY           SKY/WX    TMP DP  RH WIND       PRES   REMARKS
LAWRENCEVILLE  PTSUNNY   82  69  64 NW8       29.99S HX  85
FLORA*         PTSUNNY   82  69  64 NW7       29.99S HX  85
FAIRFIELD*     PTSUNNY   81  69  68 CALM      29.99S HX  84
HARRISBURG*    MOSUNNY   80  73  80 W3        30.01S HX  84
ROBINSON*      MOSUNNY   80  67  64 NW9       30.00R HX  83
CARMI*         PTSUNNY   81  73  77 NW6       29.99S HX  85
$$

ABBREVIATIONS USED IN REMARKS
   TC - TEMPERATURE IN CELSIUS
  WCI - WIND CHILL INDEX
   HX - HEAT INDEX
  VSB - VISIBILITY
$$





USA.gov is the U.S. government's official web portal to all federal, state and local government web resources and services.